Regional Weather Roundup
Issued by NWS

Home | Current Version | Previous Version | Text Only | Print | Product List | Glossary Off
Versions: 1 2 3 4 5 6 7 8 9 10 11 12 13 14 15 16 17 18 19 20 21 22 23 24 25 26 27 28 29 30 31 32 33 34 35 36 37 38 39 40 41 42 43 44 45 46 47 48 49 50

000
ASUS43 KLOT 231010
RWRIL

ILLINOIS REGIONAL WEATHER ROUNDUP
NATIONAL WEATHER SERVICE CHICAGO/ROMEOVILLE IL
500 AM CDT SAT AUG 23 2014

NOTE: "FAIR" INDICATES FEW OR NO CLOUDS BELOW 12,000 FEET WITH NO
SIGNIFICANT WEATHER AND/OR OBSTRUCTIONS TO VISIBILITY.

* THESE STATIONS ARE NOT UNDER NWS QUALITY CONTROL. THEY ALSO MAY NOT
  REPORT WEATHER SUCH AS PRECIPITATION OR FOG.

ILZ001-002-007-009-015-016-024-231100-
NORTHWEST ILLINOIS

CITY           SKY/WX    TMP DP  RH WIND       PRES   REMARKS
MOLINE         MOCLDY    75  73  93 E7        29.93F
STERLING*      CLOUDY    72  70  94 CALM      29.95F
SAVANNA*       CLOUDY    74  72  93 CALM      29.94F FOG
$$

ILZ003-004-008-010-011-017-018-231100-
NORTH CENTRAL ILLINOIS

CITY           SKY/WX    TMP DP  RH WIND       PRES   REMARKS
ROCKFORD       CLOUDY    73  70  90 CALM      29.97F FOG
FREEPORT*      FOG       73  72  96 CALM      29.98F VSB 1/4
ROCHELLE*      MOCLDY    71  69  96 CALM      29.97F FOG
DE KALB*       FOG       69  69  98 E3        29.98F VSB 1/4
PERU*          MOCLDY    73  71  93 CALM      29.96F
$$

ILZ005-006-012>014-019>023-231100-
NORTHEAST ILLINOIS

CITY           SKY/WX    TMP DP  RH WIND       PRES   REMARKS
CHICAGO-OHARE  CLOUDY    73  69  87 NE6       29.97S FOG
CHICAGO-MIDWAY PTCLDY    77  74  90 E3        29.96F FOG
AURORA         FOG       72  69  90 CALM      29.97S VSB 1/2
LANSING*       FOG       70  69  99 CALM      29.97F VSB 1/2
JOLIET*        FOG       71  70  95 CALM      29.98R VSB 3/4
WAUKEGAN       FOG       70  69  97 NE3       29.98S VSB 1/4
DUPAGE AIRPORT PTCLDY    73  71  93 CALM      29.97S FOG
KANKAKEE*      FOG       69  69  99 CALM      29.98R VSB 3/4
WHEELING       CLOUDY    73  71  93 CALM      29.99S FOG
MORRIS*        MOCLDY    73  73 100 CALM      29.97R FOG
ROMEOVILLE*      N/A     71  71 100 CALM      29.98R FOG
NORTHERLY ISL    N/A     73  71  93 N3          N/A
$$

LMZ740>746-231100-
SOUTHERN LAKE MICHIGAN

STATION/POSITION SKY/WX   TEMP    WIND        PRES    VSBY  WAVE
                          AIR SEA DIR/SP/G                  HT/PER
                          (F)     (DEG/KT/KT) (MB)    (MI)  (FT/S)
SOUTHERN BUOY              70 69  110/  8/  8 1015.2R         1
WAUKEGAN HARBOR            71      40/  4/  4   N/A
HARRISON CRIB              72      40/  4/  5   N/A
BURNHAM HARBOR             73      20/  3/  4   N/A
CALUMET HARBOR             73      CALM  /  1 1013.7F
MICHIGAN CITY              73     170/  4/  4   N/A
MICHIGAN CITY 6N           73 72  170/  2/  4   N/A           0
ST. JOSEPH                 73 72   90/  4/  4   N/A           0
$$

ILZ025>027-034>036-040-047-049-050-058-095>099-231100-
WEST-CENTRAL ILLINOIS

CITY           SKY/WX    TMP DP  RH WIND       PRES   REMARKS
QUINCY         CLEAR     76  74  93 SE6       29.91F
GALESBURG*     PTCLDY    74  72  96 E3        29.94S FOG
MACOMB*        MOCLDY    74  74 100 E3        29.95F FOG
JACKSONVILLE*  CLEAR     77  76  96 CALM      29.93S FOG
PITTSFIELD*    CLEAR     76  74  93 CALM      29.93S FOG
$$

ILZ028>032-037-038-041>044-048-051>054-059>061-231100-
CENTRAL ILLINOIS

CITY           SKY/WX    TMP DP  RH WIND       PRES   REMARKS
PONTIAC        CLEAR     72  72 100 CALM      29.97R FOG
DECATUR        PTCLDY    74  72  93 E5        29.95S FOG
PEORIA         CLEAR     76  72  87 CALM      29.94F
LACON*         PTCLDY    71  69  95 CALM      29.94F
LINCOLN*       PTCLDY    75  73  94 CALM      29.91F FOG
SPRINGFIELD    CLEAR     77  75  93 E3        29.93S
TAYLORVILLE    PTCLDY    73  73 100 E3        29.94S FOG
$$

ILZ033-039-045-046-055>057-062-063-231100-
EAST-CENTRAL ILLINOIS

CITY           SKY/WX    TMP DP  RH WIND       PRES   REMARKS
CHAMPAIGN      FOG       73  72  96 E5        29.97R VSB 1/4
DANVILLE*      HVY RAIN  69  69 100 CALM      29.95S
RANTOUL*       CLEAR     73  70  89 CALM      29.98R FOG
MATTOON        CLEAR     76  74  93 S5        29.95S FOG
PARIS*         FOG       72  72 100 CALM      29.97S VSB 1/4
$$

ILZ079-100>102-231100-
SOUTHWEST ILLINOIS

CITY           SKY/WX    TMP DP  RH WIND       PRES   REMARKS
ALTON          PTCLDY    75  75 100 SE3       29.93S FOG
BELLEVILLE     CLEAR     75  75 100 E2        29.93R FOG
CAHOKIA*       CLEAR     76  74  93 CALM      29.93R
SPARTA*        PTCLDY    75  74  95 CALM      29.95R
$$

ILZ064>066-069>071-074>076-080>082-084>086-088>090-092>094-231100-
SOUTH-CENTRAL ILLINOIS

CITY           SKY/WX    TMP DP  RH WIND       PRES   REMARKS
CARBONDALE     CLEAR     77  74  90 S3        29.94R
CAIRO*         CLEAR     79  73  83 SW3       29.95S HX  82
MARION         MOCLDY    79  75  89 CALM      29.95S THUNDER HX  82
MT. VERNON     PTCLDY    75  72  88 CALM      29.95S
CENTRALIA*     CLEAR     74  72  92 CALM      29.94S FOG
SALEM*         CLEAR     79  77  95 CALM      29.94S FOG     HX  83
METROPOLIS*    CLEAR     76  74  94 CALM      29.95S FOG
$$

ILZ067-068-072-073-078-083-087-091-231100-
SOUTHEAST ILLINOIS

CITY           SKY/WX    TMP DP  RH WIND       PRES   REMARKS
LAWRENCEVILLE  CLOUDY    74  73  97 SE3       29.96S
FLORA*         FOG       74  74  98 CALM      29.95R VSB 1/2
FAIRFIELD*     CLEAR     79  75  89 CALM      29.95R HX  82
HARRISBURG*    PTCLDY    76  76 100 CALM      29.96S
ROBINSON*      PTCLDY    75  74  97 CALM      29.96S FOG
CARMI*         PTCLDY    77  75  94 CALM      29.95S FOG
$$

ABBREVIATIONS USED IN REMARKS
   TC - TEMPERATURE IN CELSIUS
  WCI - WIND CHILL INDEX
   HX - HEAT INDEX
  VSB - VISIBILITY
$$



USA.gov is the U.S. government's official web portal to all federal, state and local government web resources and services.